Regional Weather Roundup
Issued by NWS

Home | Current Version | Previous Version | Text Only | Print | Product List | Glossary On
Versions: 1 2 3 4 5 6 7 8 9 10 11 12 13 14 15 16 17 18 19 20 21 22 23 24 25 26 27 28 29 30 31 32 33 34 35 36 37 38 39 40 41 42 43 44 45 46 47 48 49 50
321
ASUS45 KBOU 220310
RWRCO

WEATHER ROUNDUP FOR COLORADO
NATIONAL WEATHER SERVICE PUEBLO CO
900 PM MDT SAT APR 21 2018

NOTE: "FAIR" INDICATES FEW OR NO CLOUDS BELOW 12000 FEET WITH NO
SIGNIFICANT WEATHER AND/OR OBSTRUCTIONS TO VISIBILITY.

COZ001>005-013-030-031-220400-
...NORTHWEST COLORADO...

CITY           SKY/WX    TMP DP  RH WIND       PRES   REMARKS
CRAIG          CLEAR     45  37  73 SE8       30.18R
HAYDEN         CLEAR     43  35  73 E10       30.21R
MEEKER         CLEAR     44  35  70 NE3       30.20R
RABBIT EARS PA NOT AVBL
STEAMBOAT SPGS FAIR      39  35  85 CALM      30.21R
WALDEN         FAIR      32  28  86 SE7       30.22R WCI  26
$$

COZ006>008-011-220400-
...WEST CENTRAL VALLEYS...

CITY           SKY/WX    TMP DP  RH WIND       PRES   REMARKS
GRAND JUNCTION CLEAR     56  35  45 SE13      30.14R
MONTROSE       CLEAR     48  35  60 SE6       30.23R
EAGLE          CLEAR     40  36  86 E6        30.26R
RIFLE          CLEAR     46  40  79 SE8       30.20R
DELTA          NOT AVBL
NUCLA          FAIR      52  30  43 SE9       30.23R
$$

COZ017>023-064>068-220400-
...SOUTHWEST COLORADO...

CITY           SKY/WX    TMP DP  RH WIND       PRES   REMARKS
DURANGO        CLEAR     53  22  29 N15       30.13R
CORTEZ         CLEAR     50  27  40 NE8       30.18R
PAGOSA SPRINGS FAIR      49  14  24 N10       30.19R
TELLURIDE      PTCLDY    38  26  61 CALM      30.33R
WOLF CREEK PAS CLEAR     27  19  74 N5        30.40R WCI  21
$$

COZ009-010-012-014-032>034-037-058>063-220400-
...CENTRAL COLORADO...

CITY           SKY/WX    TMP DP  RH WIND       PRES   REMARKS
ASPEN          CLEAR     35  31  85 S7        30.26R WCI  29
BUENA VISTA    FAIR      40  28  62 W5        30.23R
COPPER MTN     NOT AVBL
BERTHOUD PASS  CLOUDY    21  12  68 N24G40    30.28R WCI   4
COTTONWOOD PAS CLEAR     37  28  70 N8G18     30.26R
GUNNISON       CLEAR     40  30  67 S7        30.26R
KREMMLING      CLEAR     43  34  70 CALM      30.24R
LEADVILLE      CLEAR     27  24  89 N7        30.27R WCI  19
MONARCH PASS     N/A     23  21  93 NW9       30.43R WCI  13
SALIDA         FAIR      40  33  74 E5        30.29R
SUNLIGHT       CLEAR     28  27  93 W5        30.37R WCI  23
WILKERSON PASS CLOUDY    27  21  80 NW8       30.31R WCI  18
$$

COZ069>075-220400-
...SAN LUIS VALLEY/SANGRE DE CRISTO MOUNTAINS...

CITY           SKY/WX    TMP DP  RH WIND       PRES   REMARKS
ALAMOSA        PTCLDY    47  25  42 NW20G28   30.18R
DEL NORTE      FAIR      41  22  46 NW7       30.23R
LA VETA PASS   CLOUDY    32  28  86 SW8       30.37R WCI  25
SAGUACHE       NOT AVBL
$$

COZ035-036-038>040-220400-
...NORTHERN COLORADO FRONT RANGE...

CITY           SKY/WX    TMP DP  RH WIND       PRES   REMARKS
DENVER INTL AP MOCLDY    36  34  92 S7        30.18S
DMNS CITY PARK NOT AVBL
AURORA         MOCLDY    35  35  99 S7        30.19R WCI  29
FRONT RANGE AP CLOUDY    39  36  87 S9        30.19S
ERIE MUNI ARPT MOCLDY    38  35  90 CALM      30.22S
BOULDER MUN AP FAIR      39  36  87 CALM      30.17S
CENTENNIAL     MOCLDY    36  34  92 SE8       30.18S
BROOMFIELD     MOCLDY    39  36  87 CALM      30.18S
LOVELAND       CLOUDY    38  35  89 SE7       30.18R
LONGMONT       FAIR      37  33  85 W3        30.20R
$$

COZ041-046-047-076>085-087-088-220400-
...PIKES PEAK/PALMER DIVIDE AND SOUTHERN FOOTHILLS...

CITY           SKY/WX    TMP DP  RH WIND       PRES   REMARKS
COLO. SPRINGS  MOCLDY    39  32  76 SE6       30.21R
A. F. ACADEMY  CLOUDY    37  31  81 S7        30.20R
SCHRIEVER AFB  NOT AVBL
CHEYENNE MTN   NOT AVBL
ELLICOTT         N/A    N/A N/A N/A CALM      30.20R
FALCON         CLOUDY    36  30  79 W3        30.23R
FORT CARSON    CLOUDY    40  34  81 S8        30.20R
LIMON          CLOUDY    36  33  89 E7        30.22R
MONUMENT HILL  MOCLDY    32  30  93 SE6       30.21R WCI  26
CANON CITY     CLOUDY    45  37  76 CALM      30.22R
WALSENBURG     CLOUDY    41  36  81 CALM      30.23R
TRINIDAD       CLOUDY    41  36  82 CALM      30.23R
$$

COZ042>045-048>051-090-091-220400-
...NORTHEAST COLORADO...

CITY           SKY/WX    TMP DP  RH WIND       PRES   REMARKS
GREELEY ARPT   MOCLDY    38  35  89 SE3       30.19R
AKRON          CLOUDY    38  36  92 SE7       30.21R
BURLINGTON     CLOUDY    39  37  92 SE3       30.23S
WRAY           CLOUDY    41  37  87 E6        30.24R
YUMA           NOT AVBL
STERLING       NOT AVBL
HOLYOKE        CLOUDY    41  37  87 SE5       30.24R
FORT MORGAN    CLOUDY    39  36  89 E6        30.21R
$$

COZ086-089-092>099-220400-
...SOUTHEAST COLORADO...

CITY           SKY/WX    TMP DP  RH WIND       PRES   REMARKS
PUEBLO         CLOUDY    46  34  62 E5        30.22R
LA JUNTA       LGT RAIN  44  40  85 NE6       30.22R
LAMAR          CLOUDY    44  37  76 NE9       30.22R
SPRINGFIELD      N/A     40  37  89 NE9       30.22R
$$





USA.gov is the U.S. government's official web portal to all federal, state and local government web resources and services.